Weather History for Georgetown, SC

Change the Weather History Date:

Sunday, February 10, 2013

  Actual Average Record
Temperature  
Mean Temperature 44 °F -  
Max Temperature 59 °F 57 °F 60 °F (2014)
Min Temperature 30 °F 32 °F 30 °F (2013)
Degree Days  
Heating Degree Days 20    
Moisture  
Dew Point 42 °F    
Average Humidity 87    
Maximum Humidity 100    
Minimum Humidity 55    
Precipitation  
Precipitation 0.00 in - - ()
Sea Level Pressure  
Sea Level Pressure 30.35 in    
Wind  
Wind Speed 3 mph (ENE)    
Max Wind Speed 12 mph    
Max Gust Speed 18 mph    
Visibility 10 miles    
Events      
Averages and records for this station are not official NWS values.
T = Trace of Precipitation, MM = Missing Value Source: NWS Daily Summary

Daily Weather History Graph

Daily Weather History Graph

Search for Another Location

Airport:

Trip Planner

Search our weather history database for the weather conditions in past years. The results will help you decide how hot, cold, wet, or windy it might be!

Date:

Astronomy

Feb. 10, 2013 Rise Set
Actual Time 7:05 AM EST 5:57 PM EST
Civil Twilight 6:40 AM EST 6:23 PM EST
Nautical Twilight 6:10 AM EST 6:52 PM EST
Astronomical Twilight 5:41 AM EST 7:21 PM EST
Moon 6:58 AM EST (2/10) 6:41 PM EST (2/10)
Length of Visible Light 11h 43m
Length of Day
10h 52m
New Moon, 0% of the Moon is Illuminated
Feb 10
New Moon
Feb 17
First Quarter
Feb 25
Full
Mar 4
Last Quarter
Mar 11
New

Hourly Weather History & Observations

Time (EST) Temp. Windchill Dew Point Humidity Pressure Visibility Wind Dir Wind Speed Gust Speed Precip Events Conditions
12:15 AM 33.8 °F - 33.8 °F 100% 30.37 in 10.0 mi Calm Calm - N/A   Clear
12:35 AM 33.8 °F - 33.8 °F 100% 30.36 in 10.0 mi Calm Calm - N/A   Clear
12:55 AM 32.0 °F - 32.0 °F 100% 30.36 in 10.0 mi Calm Calm - N/A   Clear
1:15 AM 32.0 °F - 32.0 °F 100% 30.36 in 10.0 mi Calm Calm - N/A   Clear
1:35 AM 30.2 °F - 30.2 °F 100% 30.36 in 10.0 mi Calm Calm - N/A   Clear
1:55 AM 32.0 °F - 32.0 °F 100% 30.36 in 10.0 mi Calm Calm - N/A   Clear
2:15 AM 32.0 °F - 32.0 °F 100% 30.37 in 10.0 mi Calm Calm - N/A   Clear
2:35 AM 32.0 °F - 32.0 °F 100% 30.37 in 10.0 mi Calm Calm - N/A   Clear
2:55 AM 32.0 °F - 32.0 °F 100% 30.36 in 10.0 mi Calm Calm - N/A   Clear
3:15 AM 32.0 °F - 32.0 °F 100% 30.35 in 10.0 mi Calm Calm - N/A   Clear
3:35 AM 32.0 °F - 32.0 °F 100% 30.36 in 10.0 mi Calm Calm - N/A   Clear
3:55 AM 32.0 °F - 32.0 °F 100% 30.37 in 10.0 mi Calm Calm - N/A   Clear
4:15 AM 32.0 °F - 32.0 °F 100% 30.37 in 10.0 mi Calm Calm - N/A   Clear
4:35 AM 32.0 °F - 32.0 °F 100% 30.38 in 10.0 mi Calm Calm - N/A   Clear
4:55 AM 32.0 °F - 32.0 °F 100% 30.38 in 10.0 mi Calm Calm - N/A   Clear
5:15 AM 32.0 °F - 32.0 °F 100% 30.38 in 10.0 mi Calm Calm - N/A   Clear
5:35 AM 32.0 °F 28.7 °F 32.0 °F 100% 30.38 in 10.0 mi NNE 3.5 mph - N/A   Clear
5:55 AM 32.0 °F 27.5 °F 32.0 °F 100% 30.37 in 7.0 mi NE 4.6 mph - N/A   Clear
6:15 AM 32.0 °F 28.7 °F 32.0 °F 100% 30.38 in 10.0 mi NE 3.5 mph - N/A   Clear
6:35 AM 32.0 °F - 32.0 °F 100% 30.38 in 10.0 mi Calm Calm - N/A   Clear
6:55 AM 33.8 °F 29.6 °F 33.8 °F 100% 30.39 in 10.0 mi NNE 4.6 mph - N/A   Clear
7:15 AM 33.8 °F 28.6 °F 33.8 °F 100% 30.39 in 10.0 mi NE 5.8 mph - N/A   Clear
7:35 AM 35.6 °F - 35.6 °F 100% 30.40 in 10.0 mi Calm Calm - N/A   Clear
7:55 AM 37.4 °F - 37.4 °F 100% 30.42 in 10.0 mi Calm Calm - N/A   Clear
8:15 AM 42.8 °F - 41.0 °F 93% 30.42 in 10.0 mi Calm Calm - N/A   Clear
8:35 AM 44.6 °F 41.4 °F 42.8 °F 93% 30.42 in 10.0 mi NNE 5.8 mph - N/A   Clear
8:55 AM 46.4 °F 45.2 °F 42.8 °F 87% 30.43 in 10.0 mi NNE 3.5 mph - N/A   Clear
9:15 AM 50.0 °F - 42.8 °F 76% 30.43 in 10.0 mi East 4.6 mph - N/A   Clear
9:35 AM 51.8 °F - 42.8 °F 71% 30.44 in 10.0 mi East 9.2 mph - N/A   Clear
9:55 AM 53.6 °F - 41.0 °F 62% 30.44 in 10.0 mi ENE 11.5 mph - N/A   Clear
10:15 AM 53.6 °F - 42.8 °F 67% 30.44 in 10.0 mi East 10.4 mph - N/A   Clear
10:35 AM 53.6 °F - 41.0 °F 62% 30.44 in 10.0 mi ENE 8.1 mph - N/A   Clear
10:55 AM 55.4 °F - 41.0 °F 58% 30.44 in 10.0 mi East 10.4 mph - N/A   Clear
11:15 AM 55.4 °F - 42.8 °F 63% 30.42 in 10.0 mi ENE 11.5 mph 18.4 mph N/A   Clear
11:35 AM 57.2 °F - 42.8 °F 59% 30.42 in 10.0 mi East 11.5 mph - N/A   Clear
11:55 AM 59.0 °F - 42.8 °F 55% 30.44 in 10.0 mi ENE 10.4 mph - N/A   Clear
12:15 PM 59.0 °F - 42.8 °F 55% 30.42 in 10.0 mi ENE 10.4 mph - N/A   Clear
12:35 PM 59.0 °F - 44.6 °F 59% 30.41 in 10.0 mi ENE 10.4 mph - N/A   Clear
12:55 PM 59.0 °F - 44.6 °F 59% 30.39 in 10.0 mi ENE 8.1 mph - N/A   Clear
1:15 PM 59.0 °F - 44.6 °F 59% 30.39 in 10.0 mi East 11.5 mph 17.3 mph N/A   Scattered Clouds
1:35 PM 57.2 °F - 44.6 °F 63% 30.38 in 10.0 mi ENE 10.4 mph - N/A   Overcast
1:55 PM 59.0 °F - 44.6 °F 59% 30.37 in 10.0 mi East 11.5 mph - N/A   Scattered Clouds
2:15 PM 57.2 °F - 44.6 °F 63% 30.38 in 10.0 mi ENE 9.2 mph - N/A   Scattered Clouds
2:35 PM 59.0 °F - 46.4 °F 63% 30.35 in 10.0 mi ENE 10.4 mph - N/A   Mostly Cloudy
2:55 PM 57.2 °F - 46.4 °F 67% 30.34 in 10.0 mi East 9.2 mph - N/A   Overcast
3:15 PM 55.4 °F - 46.4 °F 72% 30.33 in 10.0 mi East 11.5 mph - N/A   Mostly Cloudy
3:35 PM 55.4 °F - 46.4 °F 72% 30.33 in 10.0 mi East 11.5 mph - N/A   Overcast
4:15 PM 53.6 °F - 46.4 °F 77% 30.33 in 10.0 mi East 10.4 mph - N/A   Overcast
4:35 PM 53.6 °F - 46.4 °F 77% 30.32 in 10.0 mi ENE 10.4 mph - N/A   Overcast
4:55 PM 53.6 °F - 46.4 °F 77% 30.32 in 10.0 mi ENE 9.2 mph - N/A   Overcast
5:15 PM 51.8 °F - 46.4 °F 82% 30.32 in 10.0 mi East 9.2 mph - N/A   Overcast
5:35 PM 51.8 °F - 46.4 °F 82% 30.31 in 10.0 mi East 6.9 mph - N/A   Mostly Cloudy
5:55 PM 51.8 °F - 48.2 °F 88% 30.30 in 10.0 mi East 8.1 mph - N/A   Mostly Cloudy
6:15 PM 51.8 °F - 48.2 °F 88% 30.29 in 10.0 mi ENE 6.9 mph - N/A   Overcast
6:35 PM 51.8 °F - 48.2 °F 88% 30.29 in 10.0 mi ENE 3.5 mph - N/A   Mostly Cloudy
6:55 PM 50.0 °F - 48.2 °F 94% 30.28 in 10.0 mi ENE 4.6 mph - N/A   Scattered Clouds
7:15 PM 50.0 °F - 50.0 °F 100% 30.28 in 10.0 mi NE 3.5 mph - N/A   Scattered Clouds
7:35 PM 50.0 °F - 50.0 °F 100% 30.28 in 10.0 mi NNE 3.5 mph - N/A   Clear
7:55 PM 50.0 °F - 50.0 °F 100% 30.27 in 10.0 mi ENE 4.6 mph - N/A   Clear
8:15 PM 50.0 °F - 50.0 °F 100% 30.27 in 10.0 mi Calm Calm - N/A   Clear
8:35 PM 48.2 °F - 48.2 °F 100% 30.25 in 10.0 mi Calm Calm - N/A   Clear
8:55 PM 50.0 °F - 50.0 °F 100% 30.24 in 10.0 mi Calm Calm - N/A   Scattered Clouds
9:15 PM 46.4 °F - 46.4 °F 100% 30.24 in 10.0 mi Calm Calm - N/A   Clear
9:35 PM 50.0 °F - 50.0 °F 100% 30.24 in 10.0 mi Calm Calm - N/A   Clear
9:55 PM 51.8 °F - 51.8 °F 100% 30.26 in 10.0 mi Calm Calm - N/A   Mostly Cloudy
10:15 PM 51.8 °F - 51.8 °F 100% 30.25 in 10.0 mi Calm Calm - N/A   Mostly Cloudy
10:35 PM 50.0 °F - 50.0 °F 100% 30.25 in 10.0 mi NNE 3.5 mph - N/A   Scattered Clouds
10:55 PM 50.0 °F - 50.0 °F 100% 30.26 in 10.0 mi Calm Calm - N/A   Scattered Clouds
11:15 PM 50.0 °F - 50.0 °F 100% 30.27 in 10.0 mi Calm Calm - N/A   Clear
11:35 PM 50.0 °F - 50.0 °F 100% 30.26 in 10.0 mi Calm Calm - N/A   Scattered Clouds
11:55 PM 50.0 °F - 50.0 °F 100% 30.27 in 10.0 mi Calm Calm - N/A   Scattered Clouds